Regional Weather Roundup
Issued by NWS Northern Indiana

Home | Current Version | Previous Version | Text Only | Print | Product List | Glossary On
Versions: 1 2 3 4 5 6 7 8 9 10 11 12 13 14 15 16 17 18 19 20 21 22 23 24 25 26 27 28 29 30 31 32 33 34 35 36 37 38 39 40 41 42 43 44 45 46 47 48 49 50
000
ASUS43 KIWX 300310
RWRIWX

KIWX WEATHER ROUNDUP
NATIONAL WEATHER SERVICE NORTHERN INDIANA
1100 PM EDT SUN MAY 29 2016

NOTE: "FAIR" INDICATES FEW OR NO CLOUDS BELOW 12,000 FEET WITH NO
SIGNIFICANT WEATHER AND/OR OBSTRUCTIONS TO VISIBILITY.

* THESE STATIONS ARE NOT UNDER NWS QUALITY CONTROL. THEY ALSO MAY NOT
  REPORT WEATHER SUCH AS PRECIPITATION OR FOG.

INZ001>027-300400-
NORTHERN INDIANA

CITY           SKY/WX    TMP DP  RH WIND       PRES   REMARKS
GARY*          CLEAR     68  64  88 W6        30.00R
VALPARAISO     CLEAR     68  57  68 W5        30.01R
MICHIGAN CITY* CLEAR     64  55  72 CALM      30.01R
LAPORTE*       CLEAR     71  57  60 W3        30.01R
KNOX*          CLEAR     72  45  37 W6        30.00R
SOUTH BEND     CLEAR     65  56  72 CALM      30.00R
GOSHEN         CLEAR     65  55  70 CALM      30.00R
MONTICELLO*    PTCLDY    70  51  50 CALM      30.01R
LOGANSPORT*    CLEAR     70  54  56 W3        30.02R
ROCHESTER*     CLEAR     72  57  60 CALM      30.02R
WARSAW*        CLEAR     66  59  77 CALM      30.01R
ANGOLA*          N/A     70  63  78 CALM      30.00S
FORT WAYNE     PTCLDY    72  56  57 NW6       30.01R
HUNTINGTON*    CLEAR    N/A N/A N/A CALM      30.00R
PERU/GRISSOM   CLEAR     71  56  60 W6        30.00R
MARION*        CLOUDY    72  53  51 W6        30.01R

$$
INZ028>050-300400-
CENTRAL INDIANA

CITY           SKY/WX    TMP DP  RH WIND       PRES   REMARKS
LAFAYETTE      CLEAR     69  56  62 W6        30.01R
KOKOMO*        CLOUDY    70  54  56 W6        30.01R
MUNCIE*        PTCLDY    74  53  48 W5        30.01R
INDIANAPOLIS   PTCLDY    70  62  76 SW6       30.01R

$$
MIZ043>046-050>051-056>058-064>065-071>073-077>080-300400-
SOUTHWEST LOWER MICHIGAN

CITY           SKY/WX    TMP DP  RH WIND       PRES   REMARKS
BATTLE CREEK   CLEAR     66  56  70 SW6       30.00R
BENTON HARBOR  CLEAR     66  57  72 W5        29.98S
COLDWATER*     CLEAR     63  55  77 CALM      30.00S
HILLSDALE*     CLEAR     65  50  57 NW3       30.01R
HOLLAND        CLEAR     65  56  72 W5        29.98R
GRAND RAPIDS   PTCLDY    70  58  65 SW6       29.98R
KALAMAZOO      CLEAR     67  56  67 SW5       29.99S
STURGIS*       CLEAR     65  55  71 CALM      29.99S
THREE RIVERS*  FAIR      67  55  67 CALM      30.00S

$$
OHZ001>008-015>018-024>025-300400-
NORTHWEST OHIO

CITY           SKY/WX    TMP DP  RH WIND       PRES   REMARKS
WAUSEON*         N/A     73  73 100 NW8G14    29.99R
DEFIANCE       CLEAR     74  55  51 NW7       30.00R
FINDLAY        CLOUDY    71  61  70 S7        29.98R
TOLEDO EXPRESS CLEAR     74  57  55 NW8       29.98R
TOLEDO METCALF PTCLDY    72  56  57 NW8       29.98R
LIMA           PTCLDY    72  63  73 CALM      30.00R

$$
AND FOR LAKE MICHIGAN COASTAL AND OPEN LAKE BUOY OBSERVATIONS

STATION/POSITION TEMP    WIND        PRES    VSBY  WAVE
                 AIR SEA DIR/SP/G                  HT/PER
                 (F)     (DEG/KT/KT) (MB)    (MI)  (FT/S)
CALUMET HARBOR                       1014.8S
MICHIGAN CITY     69     220/ 10/ 11   N/A
BURNS HARBOR      67     250/  9/ 18 1015.9R
SAINT JOSEPH      67     180/  5/  8 1015.9R
SOUTH LAKE BUOY   57 51  230/  8/  8 1014.3R         1
4 MI NW BRIDGMAN  63 62  220/  4/  6   N/A           1
MICHIGAN CITY     62 59  250/  4/  8   N/A           1

$$
&&




USA.gov is the U.S. government's official web portal to all federal, state and local government web resources and services.